Wind_Speed
3 3 9 6 3 2 6 7 13 15 12 10 27 7 9 7 4 5 26 21 24 24 22 20 18 17 17 17 17 18 18 19 19 21 24 22 22 23 22 21 20 19 20 19 20 21 21 21 21
2 4 6 3 3 7 3 13 15 11 17 26 22 20 14 5 19 25 29 26 23 23 21 19 17 17 17 17 16 17 18 19 22 21 21 20 21 21 21 20 18 18 19 19 21 20 21 23 21
4 2 2 3 3 1 6 16 20 24 27 23 10 17 6 9 33 34 26 28 22 21 19 18 16 17 16 17 18 18 18 20 20 21 20 19 20 20 20 18 18 19 19 19 19 19 19 21 22
4 5 7 2 2 3 8 11 26 22 22 26 23 13 16 21 21 28 29 26 21 19 17 17 17 16 17 17 17 17 19 19 20 20 20 19 18 17 18 17 17 17 19 18 18 18 20 18 18
13 8 3 3 2 8 9 24 25 15 12 24 27 13 8 20 29 28 28 26 19 19 17 17 16 16 16 18 17 18 19 20 20 19 19 18 16 15 15 15 16 17 18 18 18 19 18 16 15
5 5 1 2 2 6 6 15 22 19 23 29 27 21 11 32 27 29 25 20 17 18 19 18 17 17 17 18 18 18 19 19 20 19 19 17 16 16 16 17 17 18 18 18 18 19 19 17 15
6 3 4 4 5 2 5 22 5 23 27 14 30 14 23 34 29 26 20 18 18 17 16 16 17 18 17 18 18 18 19 19 19 18 18 17 15 16 18 18 19 18 19 19 19 20 19 15 11
6 6 3 4 4 4 6 3 18 25 10 31 41 10 19 33 26 23 22 20 20 18 15 16 16 16 17 18 18 18 17 17 18 18 18 16 16 18 19 18 18 20 21 21 20 20 18 14 11
8 3 1 1 4 3 8 10 17 21 35 25 6 31 35 36 29 24 22 21 20 19 17 16 16 16 16 18 18 18 17 18 17 17 17 17 20 17 18 18 21 22 22 24 23 22 19 14 11
4 2 8 10 12 1 4 5 26 22 25 17 29 30 40 36 32 24 24 21 20 19 18 13 16 18 18 18 19 17 17 17 18 17 18 19 19 18 18 20 19 19 18 18 18 18 15 14 11
6 3 5 25 18 7 2 9 12 21 4 32 31 41 44 40 30 29 23 18 21 17 20 18 19 17 16 18 19 18 17 18 19 19 17 16 20 21 17 14 11 10 11 11 9 10 11 11 11
4 1 4 9 20 9 2 5 10 2 16 31 34 41 41 36 34 32 23 24 25 22 21 19 19 19 14 16 16 14 16 17 18 18 16 16 19 17 12 11 10 9 8 11 17 13 9 6 6
4 7 7 7 10 9 14 11 3 7 17 37 35 39 39 37 32 27 24 24 22 22 19 19 16 15 14 17 17 10 12 19 20 20 20 18 16 11 7 6 13 13 12 10 11 11 9 9 7
7 15 12 12 12 8 10 3 11 15 28 33 40 35 37 37 32 28 28 25 22 23 21 20 15 12 16 14 13 16 22 20 18 20 16 13 12 11 10 12 12 10 12 9 4 4 3 6 6
17 6 10 12 11 6 25 7 8 13 31 23 34 29 30 36 32 33 32 26 23 23 22 20 14 14 18 13 17 21 16 19 17 18 16 14 12 8 10 11 10 9 6 8 7 3 1 9 5
2 2 4 6 4 0 3 5 1 22 32 25 31 24 24 31 35 34 31 27 25 21 22 20 15 19 17 16 16 18 19 15 16 15 14 14 13 8 6 6 9 9 7 2 1 0 7 9 11
5 2 4 3 9 3 6 5 5 9 22 26 31 27 25 35 33 34 30 28 27 19 23 23 21 20 20 21 14 14 15 14 11 9 10 10 11 10 10 9 6 4 1 5 7 10 5 6 6
4 2 3 6 3 6 5 7 4 13 14 11 27 23 35 37 34 36 31 29 24 22 21 19 21 21 21 19 19 18 15 13 10 8 6 14 13 9 10 9 4 3 4 5 7 7 5 6 4
4 6 6 8 9 7 3 8 9 9 5 6 5 23 32 38 37 35 32 30 27 27 23 17 20 26 22 20 19 19 19 16 13 10 8 17 13 8 7 7 6 8 8 6 7 8 10 12 4
6 7 6 5 9 2 5 8 10 12 4 6 2 10 39 32 35 37 35 32 28 27 25 18 19 19 20 23 19 18 16 14 13 11 10 17 14 9 8 7 10 8 8 6 6 7 8 6 4
1 9 9 7 8 1 5 4 4 6 8 7 3 6 25 39 40 41 38 33 26 28 27 19 18 22 23 20 18 17 16 16 14 12 13 13 15 9 6 6 10 14 7 8 5 6 6 7 6
3 6 14 11 8 3 4 2 5 8 5 5 7 6 18 29 40 41 37 32 26 26 28 20 20 23 19 21 19 18 19 16 13 10 13 13 12 12 6 7 8 14 12 8 6 5 5 4 2
6 10 11 7 2 1 3 0 3 5 8 7 13 13 16 17 40 42 37 31 26 27 29 24 24 21 22 20 18 17 16 13 13 11 11 13 11 9 6 6 7 9 11 8 7 5 4 3 6
18 13 11 6 2 0 2 3 4 5 6 11 15 18 17 18 30 41 36 31 27 26 28 26 26 20 25 20 19 20 19 15 13 13 14 10 9 12 10 6 7 8 11 10 10 5 3 4 8
15 6 3 1 1 2 4 5 8 4 9 16 20 24 22 17 26 29 36 35 33 30 28 26 25 20 27 22 20 18 20 18 14 14 13 11 13 15 13 9 8 11 11 12 10 7 4 2 4
8 7 6 6 4 3 4 4 6 12 20 25 25 28 24 18 23 19 31 38 37 31 28 27 27 24 25 23 21 18 17 18 14 16 13 11 11 12 13 11 6 7 13 11 11 9 8 8 5
5 5 5 7 3 2 3 6 8 7 5 6 21 27 28 21 28 28 26 37 38 34 30 28 27 23 24 24 22 19 18 18 20 18 15 13 13 12 13 12 9 8 11 13 10 10 11 9 7
9 7 4 2 5 2 2 5 5 5 9 12 18 26 29 32 25 32 28 38 39 36 30 30 26 21 21 25 24 22 20 19 18 17 15 14 12 11 16 13 13 12 12 11 11 11 13 15 10
2 2 5 5 5 5 3 6 8 12 9 12 20 28 32 29 33 33 32 40 34 32 33 32 29 26 22 23 25 22 21 22 19 16 14 14 15 11 10 10 12 12 15 14 13 11 12 12 10
4 3 4 5 4 1 4 6 3 9 7 15 23 33 33 38 35 35 40 35 37 32 34 36 30 30 24 22 24 22 20 20 20 17 14 12 14 12 13 12 15 13 13 13 15 12 10 11 8
Wind_Direction
27 3 343 351 10 22 87 113 105 136 126 159 154 140 130 90 131 159 144 153 149 144 141 137 132 129 127 124 124 121 119 117 116 119 118 115 116 116 116 114 112 111 111 113 111 115 115 115 111
184 334 345 343 70 91 52 109 93 97 108 111 87 91 67 91 108 134 149 155 149 142 140 141 142 139 136 132 124 122 121 118 117 117 117 117 117 116 115 117 118 117 114 117 119 115 111 108 108
137 11 89 36 354 5 123 117 113 110 109 114 102 79 65 104 131 140 146 149 146 137 138 139 140 140 136 136 131 130 127 123 124 122 120 119 118 112 113 115 115 114 116 117 125 123 113 111 107
102 22 41 48 279 262 150 130 123 107 99 105 108 82 99 128 139 146 144 144 140 140 144 142 143 144 143 139 133 136 133 128 127 125 123 122 120 119 114 111 109 111 114 116 125 122 114 106 110
71 52 360 304 315 47 71 120 121 115 93 106 113 112 87 137 140 136 139 148 139 140 143 142 144 141 141 139 140 137 133 130 126 126 121 119 119 115 116 111 110 106 111 121 129 124 112 109 102
110 96 356 275 20 113 66 86 118 105 109 106 103 110 112 141 141 146 148 141 145 142 142 139 143 140 138 138 138 137 139 133 129 125 122 116 116 114 108 107 105 105 108 115 130 126 121 118 106
130 139 225 266 309 53 132 108 71 120 122 117 126 116 140 146 143 143 140 137 140 133 134 133 137 136 138 141 137 136 139 135 133 129 126 116 114 111 105 102 103 106 110 115 128 133 130 124 108
191 148 237 37 295 93 135 101 171 142 121 133 129 142 155 154 151 140 135 122 127 124 127 130 131 134 137 139 138 135 136 138 133 131 121 118 115 111 105 107 109 109 111 117 128 142 135 129 126
197 130 110 28 277 185 128 164 168 135 130 141 151 146 147 148 154 149 144 134 126 125 122 124 126 131 137 140 138 137 139 140 140 133 127 120 113 108 107 111 108 106 113 118 119 128 133 128 125
142 126 159 189 232 160 173 115 133 133 139 144 130 146 151 156 156 160 161 148 146 139 127 115 128 131 141 141 142 151 145 144 145 138 126 120 117 113 110 117 113 110 111 116 124 130 133 131 127
161 208 171 198 203 218 288 55 140 129 115 153 148 148 155 158 160 164 161 148 143 139 132 123 121 127 138 144 151 150 150 142 139 134 129 127 126 122 117 119 118 115 114 115 130 133 137 131 136
128 16 160 171 201 183 142 73 132 129 181 164 159 159 160 160 165 164 158 145 146 136 127 135 129 128 131 139 137 146 153 153 147 137 140 136 130 136 130 126 129 142 114 108 108 103 115 112 116
135 167 86 120 142 112 113 36 64 236 192 161 159 161 167 169 173 163 156 151 148 144 135 138 142 148 133 137 147 158 154 151 148 139 135 131 127 137 140 119 121 119 114 135 121 109 98 79 113
124 113 96 88 82 110 107 51 14 235 182 153 159 167 173 171 170 164 158 156 155 138 134 142 152 164 169 142 132 127 133 134 147 150 151 142 138 143 114 119 113 110 121 137 150 118 77 108 81
139 111 86 52 75 98 126 185 241 157 154 145 162 166 164 170 174 166 162 160 150 146 148 155 160 171 164 151 135 135 128 133 143 146 142 146 145 142 139 123 116 142 136 137 154 163 204 150 143
2 94 98 19 67 131 295 186 235 163 153 175 164 171 167 165 169 166 163 156 150 149 160 162 159 148 156 156 141 143 132 129 134 145 151 141 149 141 151 150 131 127 108 95 175 137 135 135 168
8 150 75 132 9 358 38 171 2 177 176 164 172 182 164 160 166 166 164 157 155 156 167 169 177 157 148 150 154 148 140 136 135 138 152 164 161 172 155 164 160 144 132 122 94 74 148 174 126
148 158 99 92 55 342 342 256 358 28 183 191 178 179 151 167 167 171 164 156 152 156 150 171 185 178 166 164 158 159 153 143 132 112 167 184 188 183 170 174 189 195 212 159 110 88 95 151 183
129 97 179 167 153 169 233 261 284 343 7 285 231 164 157 162 164 168 161 158 156 155 154 154 156 172 173 169 164 164 169 163 156 152 160 177 187 172 165 167 179 192 185 165 107 100 118 128 104
124 124 156 106 150 282 201 255 284 294 247 235 9 181 165 156 163 163 164 163 165 167 167 164 173 178 185 175 171 177 172 174 171 167 172 190 184 189 162 168 181 192 175 160 120 94 126 149 93
140 146 178 147 161 86 146 260 233 273 183 226 262 193 175 165 165 167 167 170 176 175 176 167 179 171 178 179 180 175 176 171 177 175 169 174 194 200 172 168 199 192 184 155 123 98 121 126 133
121 135 119 142 157 217 188 252 226 259 209 221 229 187 191 169 172 171 172 173 182 180 173 176 178 182 186 185 189 192 191 188 175 173 177 179 198 210 196 184 187 177 184 145 154 100 84 143 159
164 161 146 143 116 59 228 257 214 168 241 220 239 216 180 172 176 175 178 180 180 180 180 183 192 196 195 192 199 204 210 187 181 186 177 185 182 193 215 202 185 184 171 170 175 108 60 91 95
132 90 49 59 65 187 247 194 261 181 214 218 215 215 198 168 182 180 182 181 183 184 189 190 194 203 202 195 195 200 210 206 199 192 199 193 197 187 211 207 186 193 187 187 200 184 112 55 144
117 99 63 355 259 223 306 175 276 264 236 222 207 195 203 194 180 178 186 186 186 187 193 195 195 201 203 202 197 195 196 208 207 208 203 209 197 193 204 211 189 196 209 200 209 201 181 166 144
182 150 148 215 181 156 217 119 263 226 297 268 209 191 207 225 199 183 194 195 191 189 191 194 193 199 202 207 204 202 209 208 214 211 213 213 202 199 206 205 202 208 202 208 217 208 197 204 209
203 204 165 104 351 113 156 254 287 234 289 179 188 170 201 215 213 192 195 200 197 195 200 200 197 201 206 209 214 212 210 216 218 214 215 210 221 217 217 211 225 232 215 214 209 215 205 201 202
150 169 78 2 142 184 253 285 260 219 193 171 179 178 192 208 214 212 201 197 198 202 204 206 205 202 208 211 215 216 208 205 206 207 213 222 221 236 215 227 228 219 207 207 215 215 206 208 205
353 25 68 120 140 157 160 257 214 227 170 177 172 182 196 207 226 215 217 198 199 208 207 208 211 205 209 207 213 217 205 209 215 216 225 216 212 223 212 219 213 199 202 218 223 221 211 209 215
71 48 93 124 260 162 157 266 172 183 173 168 187 194 202 203 225 228 212 204 204 210 208 208 210 213 214 215 212 211 208 213 219 217 221 220 215 220 223 233 219 223 212 217 228 230 226 216 208
Height
1522 1521 1518 1517 1524 1521 1514 1514 1501 1508 1514 1514 1518 1519 1522 1525 1529 1548 1546 1549 1552 1553 1555 1557 1558 1558 1559 1560 1561 1562 1562 1562 1561 1563 1564 1564 1565 1565 1566 1568 1569 1569 1569 1567 1567 1567 1567 1567 1567
1522 1521 1518 1518 1526 1530 1528 1512 1512 1509 1511 1515 1517 1521 1523 1534 1530 1538 1546 1551 1553 1555 1556 1558 1559 1560 1561 1562 1563 1563 1564 1565 1566 1566 1567 1568 1569 1568 1568 1569 1569 1570 1570 1570 1570 1570 1570 1570 1569
1523 1521 1519 1522 1529 1531 1530 1511 1512 1515 1514 1515 1523 1526 1530 1538 1537 1541 1547 1552 1555 1556 1557 1559 1560 1561 1562 1563 1564 1564 1565 1566 1568 1569 1570 1570 1571 1571 1571 1572 1571 1571 1572 1572 1573 1572 1573 1572 1572
1524 1523 1524 1528 1530 1518 1513 1513 1510 1515 1521 1521 1523 1531 1538 1542 1541 1544 1549 1553 1556 1558 1559 1560 1561 1562 1563 1564 1566 1565 1566 1568 1569 1570 1571 1572 1573 1573 1574 1574 1574 1574 1574 1574 1575 1575 1576 1576 1576
1526 1524 1534 1537 1526 1522 1516 1512 1514 1515 1519 1522 1524 1535 1540 1544 1544 1547 1551 1554 1556 1558 1560 1561 1562 1563 1564 1565 1566 1567 1568 1569 1570 1571 1572 1574 1575 1575 1575 1576 1576 1576 1577 1578 1578 1579 1579 1579 1579
1527 1535 1540 1541 1527 1523 1521 1516 1514 1517 1522 1527 1528 1535 1544 1546 1547 1551 1554 1556 1558 1558 1560 1562 1563 1565 1566 1567 1568 1569 1570 1571 1572 1572 1574 1575 1576 1577 1577 1578 1578 1579 1580 1581 1581 1583 1583 1583 1583
1530 1532 1537 1532 1532 1521 1522 1516 1523 1522 1525 1529 1530 1537 1547 1549 1550 1553 1555 1556 1558 1560 1561 1562 1564 1566 1567 1568 1569 1571 1572 1573 1574 1575 1576 1577 1579 1579 1580 1580 1581 1582 1582 1584 1585 1586 1587 1587 1586
1525 1529 1532 1530 1533 1532 1524 1522 1524 1523 1527 1531 1531 1539 1545 1548 1551 1554 1556 1558 1560 1562 1563 1564 1565 1567 1568 1570 1571 1572 1575 1575 1575 1577 1577 1579 1580 1582 1582 1583 1583 1584 1584 1585 1586 1587 1588 1588 1588
1522 1528 1532 1538 1531 1528 1523 1524 1527 1527 1527 1535 1535 1538 1544 1549 1552 1554 1557 1559 1561 1563 1565 1567 1567 1569 1570 1571 1572 1574 1574 1576 1576 1578 1579 1581 1583 1586 1585 1586 1587 1587 1588 1589 1589 1590 1590 1591 1591
1520 1531 1529 1529 1526 1527 1524 1524 1526 1528 1533 1537 1540 1543 1545 1548 1552 1553 1556 1559 1563 1564 1566 1568 1569 1569 1570 1571 1573 1574 1575 1576 1577 1581 1582 1583 1585 1587 1589 1590 1590 1590 1591 1592 1593 1593 1593 1594 1595
1518 1525 1518 1522 1525 1525 1526 1528 1529 1529 1537 1535 1536 1542 1546 1549 1552 1554 1557 1560 1561 1564 1567 1569 1570 1571 1572 1572 1573 1575 1577 1579 1581 1583 1584 1585 1587 1589 1591 1592 1592 1592 1594 1594 1595 1595 1596 1597 1598
1517 1517 1517 1517 1521 1525 1527 1530 1533 1533 1531 1535 1539 1541 1546 1550 1551 1555 1558 1561 1562 1565 1568 1570 1572 1573 1574 1574 1575 1576 1578 1581 1583 1584 1586 1588 1590 1591 1592 1594 1594 1595 1596 1597 1598 1597 1598 1598 1599
1514 1517 1519 1519 1522 1525 1527 1532 1534 1533 1533 1536 1542 1544 1545 1549 1553 1557 1561 1564 1565 1567 1569 1572 1574 1575 1576 1576 1578 1578 1578 1581 1583 1586 1588 1590 1592 1592 1594 1596 1596 1597 1598 1599 1599 1600 1600 1601 1600
1512 1518 1522 1523 1524 1525 1528 1534 1534 1527 1530 1536 1541 1544 1545 1549 1553 1559 1563 1564 1566 1568 1571 1574 1576 1576 1577 1579 1580 1581 1581 1584 1586 1589 1590 1591 1592 1593 1595 1596 1597 1599 1601 1600 1601 1601 1602 1602 1601
1513 1518 1521 1527 1529 1531 1532 1543 1537 1530 1531 1537 1542 1543 1546 1549 1552 1557 1561 1563 1565 1570 1572 1575 1576 1577 1578 1581 1582 1585 1585 1587 1588 1590 1591 1592 1594 1595 1595 1598 1599 1599 1601 1601 1601 1602 1602 1602 1602
1516 1519 1531 1534 1532 1534 1533 1542 1533 1532 1531 1536 1540 1542 1545 1548 1552 1558 1561 1563 1567 1570 1573 1576 1578 1578 1579 1582 1583 1586 1588 1590 1591 1592 1593 1595 1595 1597 1597 1598 1599 1601 1602 1603 1603 1602 1602 1603 1603
1527 1535 1532 1537 1536 1534 1534 1535 1539 1532 1532 1534 1537 1540 1543 1549 1554 1557 1560 1563 1567 1570 1573 1575 1578 1580 1581 1582 1585 1586 1588 1591 1592 1593 1594 1596 1597 1598 1599 1600 1601 1602 1604 1604 1603 1603 1603 1604 1605
1531 1536 1533 1539 1536 1537 1537 1532 1536 1536 1535 1536 1535 1539 1542 1547 1552 1555 1559 1563 1568 1571 1573 1576 1577 1581 1582 1584 1585 1586 1589 1591 1592 1593 1594 1597 1598 1599 1601 1602 1602 1604 1605 1605 1604 1604 1604 1604 1605
1514 1527 1532 1533 1535 1537 1538 1536 1535 1539 1538 1537 1537 1538 1541 1545 1549 1555 1558 1563 1567 1571 1573 1575 1577 1580 1582 1584 1585 1587 1589 1592 1594 1596 1595 1597 1598 1599 1600 1601 1602 1604 1604 1605 1605 1604 1605 1605 1604
1512 1520 1531 1534 1537 1539 1540 1537 1533 1536 1540 1538 1535 1538 1538 1543 1549 1554 1558 1562 1564 1568 1572 1574 1579 1581 1582 1585 1587 1588 1590 1592 1595 1596 1596 1597 1599 1600 1601 1601 1602 1604 1604 1605 1604 1604 1604 1604 1604
1512 1514 1530 1533 1537 1539 1542 1543 1537 1531 1534 1534 1534 1535 1538 1537 1544 1550 1555 1559 1563 1566 1570 1571 1577 1580 1583 1585 1587 1589 1591 1592 1594 1595 1595 1597 1599 1600 1603 1602 1602 1603 1605 1605 1604 1605 1604 1604 1605
1520 1507 1514 1531 1536 1545 1539 1548 1538 1529 1530 1532 1533 1534 1538 1540 1541 1547 1553 1557 1561 1564 1569 1572 1575 1578 1582 1584 1587 1589 1590 1590 1592 1595 1595 1596 1598 1599 1601 1602 1603 1603 1604 1605 1605 1606 1605 1605 1605
1518 1510 1512 1524 1540 1541 1544 1548 1531 1530 1529 1528 1528 1532 1535 1539 1539 1544 1550 1554 1558 1563 1567 1571 1574 1577 1581 1584 1586 1587 1590 1592 1592 1593 1595 1596 1597 1598 1599 1601 1602 1603 1604 1605 1606 1606 1606 1606 1607
1507 1517 1523 1532 1540 1550 1537 1542 1530 1530 1520 1518 1524 1527 1530 1535 1543 1543 1548 1553 1555 1560 1565 1568 1572 1574 1579 1583 1584 1586 1588 1590 1592 1592 1593 1595 1596 1598 1598 1600 1601 1602 1604 1604 1604 1605 1606 1606 1607
1503 1516 1548 1553 1554 1547 1537 1538 1524 1513 1511 1516 1517 1522 1527 1532 1540 1542 1546 1550 1554 1557 1562 1566 1569 1572 1576 1580 1583 1585 1587 1588 1590 1591 1592 1594 1595 1596 1597 1598 1600 1601 1603 1603 1604 1604 1605 1606 1607
1503 1507 1536 1550 1543 1538 1535 1542 1524 1501 1501 1498 1511 1517 1525 1529 1534 1538 1543 1546 1551 1555 1559 1563 1567 1569 1573 1577 1581 1583 1585 1586 1588 1590 1592 1593 1594 1595 1596 1597 1598 1600 1601 1601 1601 1603 1605 1606 1607
1500 1510 1498 1530 1532 1535 1531 1523 1503 1495 1495 1495 1504 1513 1522 1525 1529 1533 1540 1543 1548 1551 1555 1559 1563 1567 1570 1574 1577 1581 1583 1585 1586 1588 1590 1591 1592 1594 1595 1596 1597 1598 1599 1600 1602 1603 1604 1605 1606
1483 1485 1517 1526 1544 1541 1532 1528 1513 1490 1485 1493 1498 1506 1516 1522 1526 1532 1536 1540 1544 1548 1553 1559 1562 1565 1567 1572 1575 1578 1580 1582 1585 1586 1588 1589 1590 1592 1593 1595 1596 1597 1599 1600 1601 1602 1602 1603 1603
1485 1490 1496 1506 1518 1533 1541 1524 1484 1480 1479 1486 1493 1500 1511 1518 1523 1528 1534 1539 1543 1546 1551 1556 1560 1562 1565 1568 1572 1575 1577 1580 1582 1584 1585 1587 1589 1591 1592 1594 1595 1596 1598 1598 1600 1600 1600 1600 1601
1478 1485 1498 1519 1515 1516 1515 1509 1466 1475 1479 1484 1487 1494 1502 1511 1518 1524 1529 1534 1540 1542 1547 1553 1558 1561 1564 1566 1569 1572 1575 1577 1578 1580 1583 1585 1587 1588 1590 1591 1593 1595 1596 1597 1598 1599 1598 1598 1600